This is the latest recevied weather packets stored in our database for station/object JO1YDG-13. If no packets are shown the sender has not sent any weather packets the latest 10 day(s).
| Time | Temp. | Humidity | Pressure | Rain* | Wind** | Luminosity | Snow |
|---|---|---|---|---|---|---|---|
| 1777943230 | 19.44° C | 25% | 991.6 hPa | 0 mm | - | - | - |
| 1777942929 | 19.44° C | 25% | 991.6 hPa | 0 mm | - | - | - |
| 1777942629 | 20° C | 28% | 991.6 hPa | 0 mm | - | - | - |
| 1777942330 | 19.44° C | 25% | 991.6 hPa | 0 mm | - | - | - |
| 1777942030 | 19.44° C | 25% | 991.7 hPa | 0 mm | - | - | - |
| 1777941730 | 19.44° C | 25% | 991.7 hPa | 0 mm | - | - | - |
| 1777941429 | 17.78° C | 28% | 991.6 hPa | 0 mm | - | - | - |
| 1777941131 | 18.89° C | 28% | 991.6 hPa | 0 mm | - | - | - |
| 1777940831 | 18.89° C | 28% | 991.6 hPa | 0 mm | - | - | - |
| 1777940531 | 18.89° C | 31% | 991.6 hPa | 0 mm | - | - | - |
| 1777940230 | 17.78° C | 28% | 991.6 hPa | 0 mm | - | - | - |
| 1777939930 | 18.89° C | 29% | 991.6 hPa | 0 mm | - | - | - |
| 1777939630 | 18.33° C | 28% | 991.6 hPa | 0 mm | - | - | - |
| 1777939330 | 17.78° C | 29% | 991.6 hPa | 0 mm | - | - | - |
| 1777939030 | 17.78° C | 29% | 991.6 hPa | 0 mm | - | - | - |
| 1777938729 | 18.33° C | 28% | 991.6 hPa | 0 mm | - | - | - |
| 1777938431 | 17.22° C | 31% | 991.7 hPa | 0 mm | - | - | - |
| 1777938131 | 17.22° C | 30% | 991.7 hPa | 0 mm | - | - | - |
| 1777937831 | 17.22° C | 30% | 991.9 hPa | 0 mm | - | - | - |
| 1777937530 | 17.22° C | 30% | 991.9 hPa | 0 mm | - | - | - |
| 1777937230 | 17.22° C | 32% | 991.9 hPa | 0 mm | - | - | - |
| 1777936930 | 16.67° C | 32% | 991.9 hPa | 0 mm | - | - | - |
| 1777936629 | 15.56° C | 34% | 991.9 hPa | 0 mm | - | - | - |
| 1777936330 | 16.11° C | 34% | 992 hPa | 0 mm | - | - | - |
| 1777936030 | 15.56° C | 35% | 992 hPa | 0 mm | - | - | - |
* Rain latest hour (hover to see other rain measurements)
** Current wind speed in m/s (hover to see current wind gust speed)